Vertical_Velocity
0 1 1 0 -0 -1 -0 -1 -3 -1 0 -0 -2 -2 -0 1 -0 -1 -1 1 0 -1 -1 -0 -1 -3 -1 -3 -0 0 2 0 -2 -1 -5 -1 0 2 5 2 -2 1 -0 1 3
0 0 -2 -3 -2 -0 -1 -0 0 0 -0 -2 -3 -3 -2 -4 -3 -3 -0 -1 -3 -4 -5 -7 -4 -1 -0 -0 1 -1 1 -3 -3 -1 -0 -1 3 4 -2 -6 -4 4 4 -6 -4
-1 -2 -2 0 2 0 0 0 -1 -2 0 -0 -2 -3 -0 -2 -0 -1 -0 0 0 1 -1 -1 -0 -1 -2 -0 -0 -0 -2 -0 -2 -0 6 -1 -2 2 1 -1 -2 -1 -2 -3 18
0 -0 -1 -1 -0 -1 -2 -0 -1 -0 -1 -1 -0 0 -2 -2 -3 -1 0 -1 -1 -0 -2 -2 -3 -2 -0 -0 -0 5 -1 -0 -2 -1 -1 0 1 -1 2 -16 -5 -3 5 4 -8
0 -0 -1 1 -0 -0 -1 -1 -1 1 -0 -1 -0 -4 -5 -3 -1 -0 0 2 1 -3 -6 -4 -3 -0 0 1 1 5 -3 -2 1 -1 -0 5 -5 -4 -5 -11 -9 -1 2 0 5
-2 0 0 -0 -0 -0 -0 0 2 -0 0 -2 -2 -2 -1 -3 -1 0 -2 -1 -2 -3 -1 2 -0 4 -1 -1 3 -2 1 -2 -3 -4 -1 10 -10 21 -23 1 -1 4 -4 1 -2
-2 -0 -0 -1 1 -0 -2 -3 0 0 -1 -2 -1 -1 -1 -5 -3 -2 -3 -1 -1 0 -5 2 1 0 3 -1 5 -0 2 -2 -4 -5 -4 5 -0 -3 -9 -1 -1 -8 -1 -0 -3
-1 -0 -2 -1 -2 1 0 -0 -0 -2 -1 0 -2 -1 -6 -1 -3 -3 0 -3 1 1 -0 1 1 5 3 -3 -4 3 4 2 -1 0 -7 4 -22 -15 -2 4 -1 -1 2 -1 2
-2 -2 -1 1 1 -3 -1 0 -1 -1 -1 -1 -1 -1 -7 -1 -3 -2 1 1 1 -0 -2 1 0 -1 4 2 1 2 -1 1 -6 -1 -0 2 -7 -14 -3 3 -4 -3 -1 -0 1
1 -1 0 -2 -0 2 -1 -1 -1 1 0 -1 -2 0 -1 -1 0 -2 1 1 -3 -3 2 2 1 1 1 3 -3 -1 1 -0 -1 -5 1 1 -8 -6 -1 1 -2 -0 -1 0 -1
1 1 -1 -2 1 0 3 -1 -1 0 0 -2 0 -1 -1 0 4 -1 1 1 -2 1 -0 0 3 -1 -4 -3 -3 3 4 1 -2 -3 3 -1 -2 -8 -3 3 0 -3 -1 -2 -3
-1 -0 1 -2 1 0 2 -2 -2 -0 -7 -0 -0 -2 0 2 -2 1 2 -2 1 0 -0 3 -2 -6 0 1 3 2 3 -8 -9 -2 14 -1 -12 -5 -1 -3 -4 -2 1 -1 7
-1 1 -2 4 -3 -1 1 -1 -2 -3 -0 -4 1 -1 0 1 -2 -2 -0 -1 1 1 -0 -1 -10 0 3 0 7 -2 2 -3 -0 -2 -1 6 -11 -5 -10 2 2 -5 -3 5 -7
0 -1 -2 5 -1 -2 1 2 -1 -0 -8 -13 0 -0 -1 0 -4 1 1 -3 -1 0 1 0 -2 1 1 1 4 6 -2 2 3 8 -1 -3 -12 -2 -2 -3 2 -3 0 -3 6
1 -2 2 -0 3 -2 -1 2 -0 -1 -9 -15 -0 2 1 -2 0 0 3 4 -1 -1 4 -17 -0 0 3 -4 2 -9 3 1 2 2 11 0 8 -6 2 -0 -2 -2 -2 -3 1
2 2 -1 -0 2 1 -2 1 0 -21 -17 -7 0 -1 1 2 -2 2 2 2 3 2 2 -7 1 1 -2 -3 1 -2 4 3 2 2 7 -9 4 -18 -2 -10 0 -1 0 -2 -2
2 1 -1 1 1 1 -0 -0 -14 -9 -11 -5 -3 0 -0 -1 -1 2 0 1 -3 1 -2 -4 -1 -0 0 3 1 6 2 -3 -3 2 -7 -1 7 -21 -3 -2 -4 -4 -2 2 3
2 0 1 2 1 3 -0 -8 -4 -7 -2 -2 -0 1 1 -1 -3 -1 0 -1 -1 1 0 1 -20 -1 -0 -3 0 -2 -2 3 2 -0 -4 -1 -3 -20 -5 -4 -0 -0 -3 2 3
3 2 2 2 -3 4 -2 -3 -11 -3 -3 -1 -2 1 -2 -0 -1 -0 -0 -1 -1 -3 -5 1 -6 -2 0 -1 -2 -2 0 -5 2 -1 4 -4 -7 -7 -1 -0 2 2 4 -1 1
-5 6 -0 1 5 1 -3 -5 -2 -1 -0 -1 -2 -2 0 -1 1 0 -0 -5 -1 -3 -1 -6 -1 -2 -5 2 -2 1 -3 -3 -1 1 -1 -3 -1 -6 -4 -1 1 2 1 3 6
5 -2 4 2 5 2 -2 -5 -1 -3 -1 -3 -1 0 -2 -1 -1 -1 -5 -7 -0 -0 0 -0 3 -13 -3 -1 -0 -2 -1 -1 1 1 3 1 -4 -3 -0 -1 -2 -1 -1 -4 -3
4 1 0 7 -0 1 -1 -4 1 -1 2 -0 -1 0 -1 -0 0 1 -2 -2 1 -0 -0 -1 0 -0 -7 -5 -0 -1 -1 1 3 -5 -1 2 -11 1 1 -0 0 -1 2 2 5
-1 -0 8 4 -1 0 -2 -1 -0 1 -1 1 -0 -1 -1 -1 -1 1 -0 -3 1 0 -2 -2 -2 -1 -16 -12 -5 0 -2 -0 0 -0 -2 3 -12 1 -1 -2 0 -0 2 1 0
2 1 6 8 4 -1 -0 -2 -1 2 -0 -0 -2 1 2 1 -0 -3 -0 -2 -0 -0 1 1 0 -1 -0 -6 1 -1 -1 -1 0 2 -2 -4 -7 -9 -2 -1 0 2 4 3 2
4 -4 -9 -1 2 1 2 0 0 -0 0 2 -1 -1 -3 1 0 -1 -0 -1 -2 -0 1 -1 0 1 -2 -2 2 -0 0 -2 1 -4 1 -8 1 -3 1 -0 -1 1 2 3 -0
-5 -6 6 0 1 8 -1 -4 -2 0 -6 -1 2 -1 1 -1 -7 -3 0 -0 -2 -3 0 -1 -3 0 -3 -1 0 -0 -1 0 -0 -1 1 1 -5 1 -0 2 1 2 1 -0 -0
0 4 4 2 2 -0 -5 -4 -4 -2 -3 -2 -4 -1 2 -10 -1 -3 0 0 -1 -1 -0 1 -0 -2 -5 0 -1 -3 -2 -1 -1 -0 -1 -0 -2 -0 -1 0 -0 -0 2 1 1
Height
1554 1553 1552 1551 1550 1549 1548 1547 1547 1546 1544 1542 1539 1537 1535 1532 1530 1529 1529 1530 1529 1528 1526 1525 1524 1524 1524 1525 1526 1527 1529 1528 1522 1523 1516 1511 1510 1506 1506 1505 1505 1502 1503 1502 1501
1554 1553 1552 1551 1550 1549 1548 1547 1546 1544 1543 1540 1538 1536 1534 1531 1530 1529 1530 1530 1529 1528 1527 1525 1524 1524 1525 1525 1526 1526 1528 1522 1518 1516 1514 1512 1510 1508 1506 1504 1502 1500 1500 1497 1497
1553 1552 1551 1550 1549 1548 1547 1546 1544 1543 1540 1538 1537 1535 1533 1531 1531 1531 1530 1530 1529 1528 1527 1525 1524 1525 1525 1524 1524 1522 1519 1518 1516 1515 1514 1512 1507 1508 1504 1501 1501 1500 1498 1499 1498
1552 1551 1550 1549 1548 1547 1545 1543 1542 1540 1538 1536 1535 1534 1532 1531 1535 1531 1530 1529 1528 1527 1526 1525 1525 1525 1525 1524 1522 1522 1514 1516 1514 1515 1514 1510 1507 1502 1502 1498 1499 1496 1496 1496 1497
1551 1550 1549 1548 1546 1545 1543 1541 1539 1537 1536 1535 1533 1532 1532 1531 1531 1530 1530 1529 1528 1526 1525 1525 1526 1526 1526 1524 1521 1518 1514 1514 1513 1513 1510 1509 1504 1502 1492 1495 1495 1493 1491 1490 1490
1549 1548 1546 1546 1545 1543 1541 1539 1538 1535 1534 1533 1532 1531 1531 1532 1530 1530 1529 1529 1527 1526 1526 1526 1526 1526 1524 1522 1521 1514 1513 1510 1508 1506 1506 1505 1498 1500 1485 1488 1488 1488 1486 1485 1485
1547 1546 1544 1543 1542 1541 1539 1538 1536 1534 1532 1532 1531 1530 1529 1530 1529 1529 1529 1528 1526 1525 1523 1523 1523 1525 1523 1520 1517 1515 1512 1508 1500 1501 1501 1500 1494 1487 1480 1486 1485 1484 1482 1481 1481
1545 1544 1543 1542 1540 1539 1537 1536 1534 1532 1531 1531 1530 1530 1528 1527 1527 1527 1527 1526 1524 1523 1521 1519 1519 1521 1520 1519 1515 1514 1512 1506 1496 1495 1495 1496 1488 1473 1480 1478 1478 1478 1477 1476 1477
1542 1541 1540 1539 1539 1537 1535 1534 1532 1531 1530 1530 1530 1529 1526 1527 1526 1526 1525 1524 1522 1520 1519 1517 1517 1518 1518 1517 1516 1511 1505 1504 1500 1492 1491 1492 1483 1463 1472 1472 1472 1473 1473 1472 1474
1540 1539 1538 1538 1537 1536 1535 1533 1531 1530 1530 1529 1530 1531 1527 1526 1524 1523 1522 1521 1520 1519 1518 1517 1516 1516 1515 1514 1509 1506 1503 1501 1500 1492 1488 1486 1474 1462 1470 1471 1469 1468 1469 1469 1470
1537 1536 1536 1536 1535 1534 1534 1533 1535 1532 1530 1527 1527 1525 1524 1524 1522 1520 1520 1519 1519 1517 1517 1517 1517 1512 1507 1507 1506 1502 1504 1499 1495 1491 1492 1483 1473 1458 1468 1467 1466 1463 1462 1465 1466
1536 1534 1534 1534 1533 1533 1533 1532 1532 1532 1526 1523 1523 1522 1521 1522 1520 1519 1519 1520 1520 1516 1513 1515 1510 1505 1505 1506 1505 1501 1498 1490 1486 1487 1488 1482 1465 1458 1466 1463 1460 1458 1457 1459 1463
1534 1533 1533 1533 1532 1533 1533 1531 1530 1529 1528 1522 1521 1521 1521 1522 1518 1516 1517 1517 1518 1516 1510 1510 1502 1502 1503 1501 1499 1496 1494 1488 1484 1481 1480 1478 1459 1455 1452 1453 1453 1452 1450 1453 1456
1532 1532 1532 1532 1534 1533 1532 1531 1529 1528 1538 1526 1520 1520 1520 1519 1517 1513 1513 1517 1516 1513 1507 1505 1499 1500 1498 1494 1494 1488 1484 1481 1476 1480 1474 1470 1452 1442 1439 1440 1440 1438 1442 1444 1443
1530 1530 1530 1530 1531 1531 1533 1531 1529 1529 1554 1523 1519 1518 1518 1519 1515 1511 1511 1513 1513 1511 1512 1499 1496 1495 1492 1488 1489 1481 1478 1476 1471 1469 1471 1464 1463 1433 1431 1431 1429 1426 1429 1435 1438
1528 1528 1529 1530 1530 1530 1530 1530 1531 1541 1546 1524 1517 1516 1518 1514 1513 1510 1510 1511 1509 1508 1503 1497 1492 1492 1486 1483 1482 1477 1473 1466 1466 1468 1461 1448 1456 1415 1424 1415 1415 1419 1419 1427 1433
1525 1525 1527 1528 1529 1529 1530 1531 1542 1547 1521 1518 1515 1515 1516 1513 1510 1508 1508 1509 1510 1506 1508 1496 1488 1484 1485 1481 1475 1476 1472 1469 1468 1465 1456 1442 1445 1418 1408 1408 1405 1407 1414 1417 1427
1522 1523 1523 1526 1527 1528 1529 1533 1543 1522 1517 1509 1511 1513 1515 1509 1507 1505 1505 1506 1499 1503 1504 1500 1501 1483 1480 1479 1472 1473 1475 1470 1453 1452 1450 1439 1435 1411 1396 1395 1395 1399 1405 1416 1420
1520 1519 1520 1523 1525 1528 1529 1545 1524 1516 1508 1507 1510 1514 1512 1507 1508 1505 1503 1501 1496 1497 1504 1504 1496 1476 1475 1470 1471 1465 1473 1461 1460 1454 1447 1436 1421 1405 1397 1393 1394 1398 1403 1413 1420
1517 1518 1517 1519 1523 1528 1528 1524 1513 1505 1506 1506 1511 1512 1511 1505 1507 1506 1500 1493 1491 1490 1491 1493 1490 1473 1469 1466 1464 1465 1461 1463 1465 1448 1434 1428 1422 1424 1406 1402 1398 1401 1403 1411 1420
1514 1517 1515 1517 1522 1526 1526 1517 1506 1501 1503 1507 1508 1510 1509 1504 1505 1503 1497 1491 1487 1487 1488 1488 1493 1476 1471 1464 1463 1465 1464 1461 1462 1456 1442 1430 1420 1409 1403 1402 1404 1400 1400 1407 1415
1510 1513 1513 1515 1521 1519 1519 1506 1500 1498 1500 1502 1503 1505 1506 1501 1502 1500 1496 1490 1485 1486 1488 1485 1491 1489 1470 1461 1460 1460 1459 1460 1459 1457 1449 1440 1427 1410 1405 1404 1403 1402 1407 1411 1416
1503 1506 1510 1512 1513 1513 1507 1500 1496 1496 1498 1500 1500 1500 1500 1500 1501 1496 1491 1484 1484 1485 1485 1484 1489 1488 1475 1467 1460 1460 1456 1456 1458 1457 1448 1443 1424 1407 1408 1406 1406 1403 1407 1412 1418
1497 1501 1505 1506 1503 1503 1502 1496 1493 1490 1492 1494 1495 1496 1499 1497 1495 1491 1488 1484 1483 1483 1482 1482 1485 1485 1484 1474 1471 1467 1457 1456 1457 1462 1443 1434 1420 1406 1408 1411 1410 1410 1411 1413 1418
1484 1483 1485 1491 1494 1495 1497 1491 1489 1489 1490 1491 1492 1492 1495 1495 1490 1492 1485 1484 1481 1480 1481 1481 1483 1480 1474 1469 1468 1464 1458 1453 1454 1448 1446 1427 1425 1410 1412 1410 1414 1413 1415 1415 1421
1471 1474 1479 1481 1482 1488 1494 1486 1484 1484 1485 1489 1490 1485 1491 1490 1484 1484 1482 1484 1484 1481 1480 1480 1480 1478 1475 1464 1462 1460 1450 1449 1448 1442 1436 1431 1424 1415 1413 1411 1413 1415 1415 1418 1425
1463 1464 1468 1469 1477 1482 1481 1474 1474 1477 1477 1478 1481 1484 1487 1482 1479 1478 1478 1478 1479 1481 1482 1482 1482 1484 1475 1466 1464 1454 1440 1441 1436 1433 1429 1429 1422 1416 1416 1417 1418 1419 1422 1422 1427